Location: Banff
(51.1667°N, 115.5667°W)
Time: 06:09:22
(UTC+00:00)

S-56A Canister/Altair - Pass Details

Date: 30 November 2020
Orbit: 633 x 2499 km, 38.9° (Epoch: 21 January)

Event Time Altitude Azimuth Distance (km) Brightness Sun altitude
Rises 03:04:39 0° 229° (SW) 5,658 12.5 -31.3°
Reaches altitude 10° 03:09:16 10° 220° (SW) 4,380 11.7 -32.0°
Enters shadow 03:18:05 30° 170° (S) 2,497 9.9 -33.4°
Maximum altitude 03:18:28 30° 166° (SSE) 2,467 - -33.5°
Drops below altitude 10° 03:25:09 10° 109° (ESE) 3,130 - -34.5°
Sets 03:27:52 0° 98° (E) 3,856 - -34.9°
